Time,TemperatureF,DewpointF,PressureIn,WindDirection,WindDirectionDegrees,WindSpeedMPH,WindSpeedGustMPH,Humidity,HourlyPrecipIn,Conditions,Clouds,dailyrainin,SolarRadiationWatts/m^2,SoftwareType,DateUTC
2013-04-28 00:00:00,64.9,56.0,25.97,ESE,113,1.0,1.0,73,0.00,,,0.00,0,Wunderground v.1.15,2013-04-28 06:00:00,
2013-04-28 00:10:00,64.7,54.7,25.96,ENE,78,1.0,1.0,70,0.00,,,0.00,0,Wunderground v.1.15,2013-04-28 06:10:00,
2013-04-28 00:20:00,64.7,54.7,25.96,ESE,106,2.0,2.0,70,0.00,,,0.00,0,Wunderground v.1.15,2013-04-28 06:20:00,
2013-04-28 00:25:00,64.7,54.3,25.95,NNW,346,2.0,2.0,69,0.00,,,0.00,0,Wunderground v.1.15,2013-04-28 06:25:00,
2013-04-28 00:35:00,64.9,54.5,25.95,East,101,2.0,3.0,69,0.00,,,0.00,0,Wunderground v.1.15,2013-04-28 06:35:00,
2013-04-28 00:40:00,64.9,54.1,25.95,SE,132,3.0,4.0,68,0.00,,,0.00,0,Wunderground v.1.15,2013-04-28 06:40:00,
2013-04-28 00:45:00,65.1,53.9,25.95,SSE,155,3.0,5.0,67,0.00,,,0.00,0,Wunderground v.1.15,2013-04-28 06:45:00,
2013-04-28 00:55:00,65.2,53.6,25.95,ESE,108,3.0,4.0,66,0.00,,,0.00,0,Wunderground v.1.15,2013-04-28 06:55:00,
2013-04-28 01:00:00,65.1,54.7,25.94,ESE,109,1.0,1.0,69,0.00,,,0.00,0,Wunderground v.1.15,2013-04-28 07:00:00,
2013-04-28 01:10:00,64.9,55.3,25.94,ESE,109,1.0,1.0,71,0.00,,,0.00,0,Wunderground v.1.15,2013-04-28 07:10:00,
2013-04-28 01:20:00,64.7,54.3,25.94,ESE,109,1.0,1.0,69,0.00,,,0.00,0,Wunderground v.1.15,2013-04-28 07:20:00,
2013-04-28 01:25:00,64.7,53.5,25.94,East,96,1.0,1.0,67,0.00,,,0.00,0,Wunderground v.1.15,2013-04-28 07:25:00,
2013-04-28 01:35:00,65.1,53.5,25.94,ESE,113,2.0,7.0,66,0.00,,,0.00,0,Wunderground v.1.15,2013-04-28 07:35:00,
2013-04-28 01:45:00,65.1,53.5,25.94,ESE,123,1.0,2.0,66,0.00,,,0.00,0,Wunderground v.1.15,2013-04-28 07:45:00,
2013-04-28 01:55:00,64.9,53.3,25.94,SE,126,1.0,1.0,66,0.00,,,0.00,0,Wunderground v.1.15,2013-04-28 07:55:00,
2013-04-28 02:00:00,64.9,52.8,25.94,East,88,1.0,1.0,65,0.00,,,0.00,0,Wunderground v.1.15,2013-04-28 08:00:00,
2013-04-28 02:05:00,64.7,52.7,25.94,ESE,109,1.0,1.0,65,0.00,,,0.00,0,Wunderground v.1.15,2013-04-28 08:05:00,
2013-04-28 02:15:00,64.6,53.0,25.93,ESE,108,0.0,1.0,66,0.00,,,0.00,0,Wunderground v.1.15,2013-04-28 08:15:00,
2013-04-28 02:20:00,64.4,53.2,25.93,ENE,67,0.0,0.0,67,0.00,,,0.00,0,Wunderground v.1.15,2013-04-28 08:20:00,
2013-04-28 02:30:00,63.9,53.1,25.93,SE,142,2.0,5.0,68,0.00,,,0.00,0,Wunderground v.1.15,2013-04-28 08:30:00,
2013-04-28 02:35:00,63.9,53.1,25.92,SSE,155,2.0,5.0,68,0.00,,,0.00,0,Wunderground v.1.15,2013-04-28 08:35:00,
2013-04-28 02:45:00,63.8,52.6,25.92,ENE,78,0.0,1.0,67,0.00,,,0.00,0,Wunderground v.1.15,2013-04-28 08:45:00,
2013-04-28 02:55:00,63.9,53.1,25.92,NE,56,1.0,1.0,68,0.00,,,0.00,0,Wunderground v.1.15,2013-04-28 08:55:00,
2013-04-28 03:00:00,63.8,53.0,25.92,ENE,59,0.0,0.0,68,0.00,,,0.00,0,Wunderground v.1.15,2013-04-28 09:00:00,
2013-04-28 03:10:00,63.6,53.2,25.92,ESE,103,0.0,1.0,69,0.00,,,0.00,0,Wunderground v.1.15,2013-04-28 09:10:00,
2013-04-28 03:15:00,63.6,53.2,25.92,ESE,121,1.0,4.0,69,0.00,,,0.00,0,Wunderground v.1.15,2013-04-28 09:15:00,
2013-04-28 03:20:00,63.4,53.4,25.92,East,92,1.0,2.0,70,0.00,,,0.00,0,Wunderground v.1.15,2013-04-28 09:20:00,
2013-04-28 03:30:00,63.4,53.0,25.92,SSW,213,2.0,2.0,69,0.00,,,0.00,0,Wunderground v.1.15,2013-04-28 09:30:00,
2013-04-28 03:40:00,63.6,52.8,25.92,ESE,119,2.0,2.0,68,0.00,,,0.00,0,Wunderground v.1.15,2013-04-28 09:40:00,
2013-04-28 03:50:00,63.4,53.0,25.92,SE,143,2.0,2.0,69,0.00,,,0.00,0,Wunderground v.1.15,2013-04-28 09:50:00,
2013-04-28 03:55:00,63.4,52.7,25.92,East,83,1.0,2.0,68,0.00,,,0.00,0,Wunderground v.1.15,2013-04-28 09:55:00,
2013-04-28 04:05:00,63.6,52.8,25.92,East,93,1.0,1.0,68,0.00,,,0.00,0,Wunderground v.1.15,2013-04-28 10:05:00,
2013-04-28 04:10:00,63.4,52.7,25.92,SE,133,1.0,5.0,68,0.00,,,0.00,0,Wunderground v.1.15,2013-04-28 10:10:00,
2013-04-28 04:20:00,63.6,52.0,25.92,ENE,69,3.0,3.0,66,0.00,,,0.00,0,Wunderground v.1.15,2013-04-28 10:20:00,
2013-04-28 04:30:00,63.8,51.8,25.92,East,100,2.0,2.0,65,0.00,,,0.00,0,Wunderground v.1.15,2013-04-28 10:30:00,
2013-04-28 04:40:00,64.1,52.1,25.92,East,84,2.0,4.0,65,0.00,,,0.00,0,Wunderground v.1.15,2013-04-28 10:40:00,
2013-04-28 04:45:00,64.1,52.1,25.92,ESE,105,2.0,5.0,65,0.00,,,0.00,0,Wunderground v.1.15,2013-04-28 10:45:00,
2013-04-28 04:50:00,64.1,52.1,25.92,East,90,2.0,5.0,65,0.00,,,0.00,0,Wunderground v.1.15,2013-04-28 10:50:00,
2013-04-28 04:55:00,64.2,52.6,25.93,SE,138,2.0,2.0,66,0.00,,,0.00,0,Wunderground v.1.15,2013-04-28 10:55:00,
2013-04-28 05:05:00,64.2,52.6,25.93,NW,313,2.0,2.0,66,0.00,,,0.00,0,Wunderground v.1.15,2013-04-28 11:05:00,
2013-04-28 05:10:00,64.1,52.5,25.93,East,89,2.0,2.0,66,0.00,,,0.00,0,Wunderground v.1.15,2013-04-28 11:10:00,
2013-04-28 05:15:00,63.9,52.7,25.93,North,5,2.0,4.0,67,0.00,,,0.00,0,Wunderground v.1.15,2013-04-28 11:15:00,
2013-04-28 05:20:00,63.8,53.0,25.93,ESE,111,2.0,2.0,68,0.00,,,0.00,0,Wunderground v.1.15,2013-04-28 11:20:00,
2013-04-28 05:25:00,63.6,53.2,25.93,NNE,29,2.0,5.0,69,0.00,,,0.00,9,Wunderground v.1.15,2013-04-28 11:25:00,
2013-04-28 05:35:00,63.8,53.4,25.94,SE,131,3.0,5.0,69,0.00,,,0.00,23,Wunderground v.1.15,2013-04-28 11:35:00,
2013-04-28 05:40:00,63.8,53.4,25.94,East,94,3.0,4.0,69,0.00,,,0.00,32,Wunderground v.1.15,2013-04-28 11:40:00,
2013-04-28 05:45:00,63.8,53.4,25.94,SE,142,2.0,5.0,69,0.00,,,0.00,42,Wunderground v.1.15,2013-04-28 11:45:00,
2013-04-28 05:55:00,64.2,53.4,25.94,East,92,2.0,2.0,68,0.00,,,0.00,97,Wunderground v.1.15,2013-04-28 11:55:00,
2013-04-28 06:05:00,64.9,52.8,25.94,ENE,66,2.0,5.0,65,0.00,,,0.00,132,Wunderground v.1.15,2013-04-28 12:05:00,
2013-04-28 06:10:00,65.4,53.3,25.94,East,92,2.0,4.0,65,0.00,,,0.00,162,Wunderground v.1.15,2013-04-28 12:10:00,
2013-04-28 06:20:00,66.3,53.8,25.94,East,80,2.0,2.0,64,0.00,,,0.00,158,Wunderground v.1.15,2013-04-28 12:20:00,
2013-04-28 06:25:00,66.5,53.9,25.94,NE,56,2.0,2.0,64,0.00,,,0.00,132,Wunderground v.1.15,2013-04-28 12:25:00,
2013-04-28 06:30:00,66.7,54.1,25.95,North,355,2.0,6.0,64,0.00,,,0.00,197,Wunderground v.1.15,2013-04-28 12:30:00,
2013-04-28 06:35:00,66.8,53.8,25.95,NW,317,2.0,6.0,63,0.00,,,0.00,209,Wunderground v.1.15,2013-04-28 12:35:00,
2013-04-28 06:40:00,67.3,54.3,25.95,East,97,2.0,6.0,63,0.00,,,0.00,294,Wunderground v.1.15,2013-04-28 12:40:00,
2013-04-28 06:50:00,68.2,54.7,25.95,ENE,64,3.0,3.0,62,0.00,,,0.00,309,Wunderground v.1.15,2013-04-28 12:50:00,
2013-04-28 06:55:00,68.3,54.3,25.96,ENE,78,3.0,3.0,61,0.00,,,0.00,269,Wunderground v.1.15,2013-04-28 12:55:00,
2013-04-28 07:05:00,68.5,55.0,25.96,SE,129,3.0,4.0,62,0.00,,,0.00,269,Wunderground v.1.15,2013-04-28 13:05:00,
2013-04-28 07:15:00,68.5,55.4,25.96,West,279,3.0,6.0,63,0.00,,,0.00,399,Wunderground v.1.15,2013-04-28 13:15:00,
2013-04-28 07:20:00,68.8,55.2,25.96,WNW,297,3.0,3.0,62,0.00,,,0.00,313,Wunderground v.1.15,2013-04-28 13:20:00,
2013-04-28 07:25:00,69.0,55.4,25.96,North,355,3.0,3.0,62,0.00,,,0.00,327,Wunderground v.1.15,2013-04-28 13:25:00,
2013-04-28 07:30:00,69.2,55.6,25.97,ENE,65,2.0,2.0,62,0.00,,,0.00,346,Wunderground v.1.15,2013-04-28 13:30:00,
2013-04-28 07:40:00,70.2,54.7,25.97,ENE,61,3.0,3.0,58,0.00,,,0.00,424,Wunderground v.1.15,2013-04-28 13:40:00,
2013-04-28 07:45:00,70.7,54.7,25.97,ESE,111,3.0,6.0,57,0.00,,,0.00,420,Wunderground v.1.15,2013-04-28 13:45:00,
2013-04-28 07:50:00,71.2,55.2,25.97,NE,42,3.0,3.0,57,0.00,,,0.00,350,Wunderground v.1.15,2013-04-28 13:50:00,
2013-04-28 08:00:00,70.2,55.2,25.98,SE,145,4.0,4.0,59,0.00,,,0.00,462,Wunderground v.1.15,2013-04-28 14:00:00,
2013-04-28 08:10:00,70.2,55.7,25.98,North,355,3.0,4.0,60,0.00,,,0.00,508,Wunderground v.1.15,2013-04-28 14:10:00,
2013-04-28 08:15:00,70.2,55.7,25.98,NNE,17,3.0,4.0,60,0.00,,,0.00,497,Wunderground v.1.15,2013-04-28 14:15:00,
2013-04-28 08:25:00,70.7,56.1,25.98,NNE,24,3.0,7.0,60,0.00,,,0.00,543,Wunderground v.1.15,2013-04-28 14:25:00,
2013-04-28 08:30:00,70.8,56.2,25.98,North,355,3.0,3.0,60,0.00,,,0.00,603,Wunderground v.1.15,2013-04-28 14:30:00,
2013-04-28 08:35:00,71.5,55.9,25.98,NE,35,3.0,3.0,58,0.00,,,0.00,582,Wunderground v.1.15,2013-04-28 14:35:00,
2013-04-28 08:40:00,71.9,56.3,25.98,NNE,17,3.0,6.0,58,0.00,,,0.00,589,Wunderground v.1.15,2013-04-28 14:40:00,
2013-04-28 08:50:00,72.6,56.0,25.98,WNW,300,3.0,3.0,56,0.00,,,0.00,606,Wunderground v.1.15,2013-04-28 14:50:00,
2013-04-28 09:00:00,73.2,56.6,25.98,NNE,32,3.0,3.0,56,0.00,,,0.00,606,Wunderground v.1.15,2013-04-28 15:00:00,
2013-04-28 09:05:00,72.9,56.3,25.98,North,5,3.0,3.0,56,0.00,,,0.00,617,Wunderground v.1.15,2013-04-28 15:05:00,
2013-04-28 09:10:00,73.1,57.0,25.98,ESE,105,3.0,3.0,57,0.00,,,0.00,729,Wunderground v.1.15,2013-04-28 15:10:00,
2013-04-28 09:20:00,74.3,57.1,25.97,ENE,62,4.0,4.0,55,0.00,,,0.00,814,Wunderground v.1.15,2013-04-28 15:20:00,
2013-04-28 09:25:00,74.6,56.9,25.97,East,90,3.0,4.0,54,0.00,,,0.00,742,Wunderground v.1.15,2013-04-28 15:25:00,
2013-04-28 09:30:00,75.0,56.7,25.97,ESE,113,3.0,5.0,53,0.00,,,0.00,652,Wunderground v.1.15,2013-04-28 15:30:00,
2013-04-28 09:35:00,74.8,57.0,25.97,East,96,3.0,5.0,54,0.00,,,0.00,733,Wunderground v.1.15,2013-04-28 15:35:00,
2013-04-28 09:40:00,75.7,56.3,25.97,NNE,21,2.0,3.0,51,0.00,,,0.00,735,Wunderground v.1.15,2013-04-28 15:40:00,
2013-04-28 09:45:00,75.9,57.0,25.96,ENE,67,2.0,3.0,52,0.00,,,0.00,624,Wunderground v.1.15,2013-04-28 15:45:00,
2013-04-28 09:55:00,77.3,56.6,25.96,SSE,157,3.0,4.0,49,0.00,,,0.00,860,Wunderground v.1.15,2013-04-28 15:55:00,
2013-04-28 10:00:00,78.0,53.7,25.96,East,88,4.0,4.0,43,0.00,,,0.00,599,Wunderground v.1.15,2013-04-28 16:00:00,
2013-04-28 10:10:00,78.5,56.6,25.96,SE,135,3.0,3.0,47,0.00,,,0.00,577,Wunderground v.1.15,2013-04-28 16:10:00,
2013-04-28 10:15:00,78.0,57.9,25.96,NW,315,3.0,3.0,50,0.00,,,0.00,570,Wunderground v.1.15,2013-04-28 16:15:00,
2013-04-28 10:25:00,76.0,58.7,25.96,East,91,3.0,5.0,55,0.00,,,0.00,668,Wunderground v.1.15,2013-04-28 16:25:00,
2013-04-28 10:30:00,76.4,58.5,25.96,ESE,105,4.0,4.0,54,0.00,,,0.00,671,Wunderground v.1.15,2013-04-28 16:30:00,
2013-04-28 10:35:00,76.0,58.2,25.96,North,5,5.0,5.0,54,0.00,,,0.00,721,Wunderground v.1.15,2013-04-28 16:35:00,
2013-04-28 10:40:00,75.2,58.4,25.96,NNE,18,4.0,5.0,56,0.00,,,0.00,661,Wunderground v.1.15,2013-04-28 16:40:00,
2013-04-28 10:50:00,75.0,58.2,25.96,NNW,344,5.0,5.0,56,0.00,,,0.00,613,Wunderground v.1.15,2013-04-28 16:50:00,
2013-04-28 11:00:00,74.6,58.4,25.95,WNW,302,5.0,7.0,57,0.00,,,0.00,698,Wunderground v.1.15,2013-04-28 17:00:00,
2013-04-28 11:10:00,74.6,58.4,25.95,WNW,294,5.0,5.0,57,0.00,,,0.00,745,Wunderground v.1.15,2013-04-28 17:10:00,
2013-04-28 11:15:00,75.2,58.9,25.95,WNW,296,5.0,7.0,57,0.00,,,0.00,914,Wunderground v.1.15,2013-04-28 17:15:00,
2013-04-28 11:20:00,75.3,58.5,25.95,WNW,290,5.0,5.0,56,0.00,,,0.00,972,Wunderground v.1.15,2013-04-28 17:20:00,
2013-04-28 11:25:00,75.7,59.4,25.95,NNE,27,5.0,5.0,57,0.00,,,0.00,956,Wunderground v.1.15,2013-04-28 17:25:00,
2013-04-28 11:35:00,75.9,59.6,25.95,ENE,69,5.0,5.0,57,0.00,,,0.00,810,Wunderground v.1.15,2013-04-28 17:35:00,
2013-04-28 11:40:00,76.2,59.4,25.94,SSE,159,5.0,5.0,56,0.00,,,0.00,668,Wunderground v.1.15,2013-04-28 17:40:00,
2013-04-28 11:50:00,75.9,59.6,25.94,NNW,335,5.0,5.0,57,0.00,,,0.00,707,Wunderground v.1.15,2013-04-28 17:50:00,
2013-04-28 11:55:00,75.7,59.4,25.94,East,96,4.0,11.0,57,0.00,,,0.00,712,Wunderground v.1.15,2013-04-28 17:55:00,
2013-04-28 12:00:00,75.5,59.7,25.94,SE,133,4.0,7.0,58,0.00,,,0.00,459,Wunderground v.1.15,2013-04-28 18:00:00,
2013-04-28 12:05:00,75.3,59.5,25.93,NW,315,5.0,7.0,58,0.00,,,0.00,751,Wunderground v.1.15,2013-04-28 18:05:00,
2013-04-28 12:15:00,76.0,59.7,25.93,East,97,4.0,5.0,57,0.00,,,0.00,881,Wunderground v.1.15,2013-04-28 18:15:00,
2013-04-28 12:25:00,75.2,59.9,25.93,WSW,242,6.0,6.0,59,0.00,,,0.00,830,Wunderground v.1.15,2013-04-28 18:25:00,
2013-04-28 12:30:00,75.2,59.9,25.92,NW,312,6.0,6.0,59,0.00,,,0.00,937,Wunderground v.1.15,2013-04-28 18:30:00,
2013-04-28 12:35:00,75.2,60.4,25.92,NNW,327,6.0,7.0,60,0.00,,,0.00,872,Wunderground v.1.15,2013-04-28 18:35:00,
2013-04-28 12:45:00,75.9,60.5,25.92,ESE,111,6.0,8.0,59,0.00,,,0.00,884,Wunderground v.1.15,2013-04-28 18:45:00,
2013-04-28 12:50:00,76.0,60.2,25.92,NE,47,5.0,5.0,58,0.00,,,0.00,817,Wunderground v.1.15,2013-04-28 18:50:00,
2013-04-28 12:55:00,76.0,60.2,25.91,ENE,69,5.0,5.0,58,0.00,,,0.00,814,Wunderground v.1.15,2013-04-28 18:55:00,
2013-04-28 13:05:00,75.5,60.2,25.91,NE,45,6.0,6.0,59,0.00,,,0.00,830,Wunderground v.1.15,2013-04-28 19:05:00,
2013-04-28 13:10:00,75.7,60.4,25.91,NW,311,5.0,7.0,59,0.00,,,0.00,879,Wunderground v.1.15,2013-04-28 19:10:00,
2013-04-28 13:15:00,75.9,60.5,25.90,NW,307,5.0,7.0,59,0.00,,,0.00,861,Wunderground v.1.15,2013-04-28 19:15:00,
2013-04-28 13:25:00,75.0,59.2,25.90,NW,321,6.0,16.0,58,0.00,,,0.00,872,Wunderground v.1.15,2013-04-28 19:25:00,
2013-04-28 13:30:00,74.6,59.3,25.90,NE,42,7.0,7.0,59,0.00,,,0.00,860,Wunderground v.1.15,2013-04-28 19:30:00,
2013-04-28 13:35:00,75.0,59.2,25.90,SSE,167,7.0,7.0,58,0.00,,,0.00,853,Wunderground v.1.15,2013-04-28 19:35:00,
2013-04-28 13:40:00,75.7,58.9,25.89,NE,49,6.0,7.0,56,0.00,,,0.00,844,Wunderground v.1.15,2013-04-28 19:40:00,
2013-04-28 13:50:00,76.0,58.7,25.89,NE,44,6.0,6.0,55,0.00,,,0.00,765,Wunderground v.1.15,2013-04-28 19:50:00,
2013-04-28 13:55:00,76.6,59.2,25.89,WNW,289,5.0,6.0,55,0.00,,,0.00,712,Wunderground v.1.15,2013-04-28 19:55:00,
2013-04-28 14:05:00,76.4,59.0,25.88,WSW,258,5.0,9.0,55,0.00,,,0.00,673,Wunderground v.1.15,2013-04-28 20:05:00,
2013-04-28 14:10:00,76.7,58.8,25.88,North,9,5.0,6.0,54,0.00,,,0.00,703,Wunderground v.1.15,2013-04-28 20:10:00,
2013-04-28 14:15:00,76.4,59.0,25.88,East,81,5.0,6.0,55,0.00,,,0.00,636,Wunderground v.1.15,2013-04-28 20:15:00,
2013-04-28 14:20:00,76.0,59.2,25.88,SE,134,5.0,5.0,56,0.00,,,0.00,490,Wunderground v.1.15,2013-04-28 20:20:00,
2013-04-28 14:25:00,75.9,59.1,25.88,WNW,298,5.0,5.0,56,0.00,,,0.00,487,Wunderground v.1.15,2013-04-28 20:25:00,
2013-04-28 14:30:00,75.5,59.2,25.88,NE,52,5.0,5.0,57,0.00,,,0.00,638,Wunderground v.1.15,2013-04-28 20:30:00,
2013-04-28 14:40:00,76.0,59.2,25.88,South,189,5.0,5.0,56,0.00,,,0.00,668,Wunderground v.1.15,2013-04-28 20:40:00,
2013-04-28 14:45:00,75.7,60.4,25.88,North,360,5.0,5.0,59,0.00,,,0.00,650,Wunderground v.1.15,2013-04-28 20:45:00,
2013-04-28 14:55:00,75.5,59.2,25.88,ENE,65,5.0,5.0,57,0.00,,,0.00,195,Wunderground v.1.15,2013-04-28 20:55:00,
2013-04-28 15:00:00,74.6,58.8,25.88,WNW,290,6.0,6.0,58,0.00,,,0.00,163,Wunderground v.1.15,2013-04-28 21:00:00,
2013-04-28 15:05:00,73.6,59.3,25.88,North,360,5.0,8.0,61,0.00,,,0.00,155,Wunderground v.1.15,2013-04-28 21:05:00,
2013-04-28 15:10:00,73.1,59.3,25.87,ENE,65,5.0,8.0,62,0.00,,,0.00,127,Wunderground v.1.15,2013-04-28 21:10:00,
2013-04-28 15:15:00,72.9,58.7,25.88,NNW,331,5.0,8.0,61,0.00,,,0.00,158,Wunderground v.1.15,2013-04-28 21:15:00,
2013-04-28 15:25:00,73.1,58.8,25.87,East,83,4.0,4.0,61,0.00,,,0.00,118,Wunderground v.1.15,2013-04-28 21:25:00,
2013-04-28 15:30:00,72.7,59.4,25.88,South,171,4.0,4.0,63,0.00,,,0.00,102,Wunderground v.1.15,2013-04-28 21:30:00,
2013-04-28 15:40:00,72.7,60.3,25.87,ENE,71,3.0,3.0,65,0.00,,,0.00,109,Wunderground v.1.15,2013-04-28 21:40:00,
2013-04-28 15:45:00,72.7,60.3,25.87,SE,139,3.0,3.0,65,0.00,,,0.00,104,Wunderground v.1.15,2013-04-28 21:45:00,
2013-04-28 15:50:00,72.2,60.2,25.87,ENE,59,4.0,4.0,66,0.00,,,0.00,156,Wunderground v.1.15,2013-04-28 21:50:00,
2013-04-28 15:55:00,72.2,60.2,25.87,ESE,121,4.0,6.0,66,0.00,,,0.00,151,Wunderground v.1.15,2013-04-28 21:55:00,
2013-04-28 16:05:00,71.5,60.0,25.87,NNE,24,5.0,5.0,67,0.00,,,0.00,130,Wunderground v.1.15,2013-04-28 22:05:00,
2013-04-28 16:10:00,71.4,60.3,25.87,NNE,24,5.0,5.0,68,0.00,,,0.00,139,Wunderground v.1.15,2013-04-28 22:10:00,
2013-04-28 16:15:00,71.2,60.5,25.87,NE,53,5.0,5.0,69,0.00,,,0.00,98,Wunderground v.1.15,2013-04-28 22:15:00,
2013-04-28 16:20:00,71.2,60.5,25.88,NNW,347,4.0,4.0,69,0.00,,,0.00,69,Wunderground v.1.15,2013-04-28 22:20:00,
2013-04-28 16:25:00,71.2,60.5,25.88,NNE,16,4.0,4.0,69,0.00,,,0.00,49,Wunderground v.1.15,2013-04-28 22:25:00,
2013-04-28 16:30:00,71.0,60.7,25.88,East,93,4.0,4.0,70,0.00,,,0.00,81,Wunderground v.1.15,2013-04-28 22:30:00,
2013-04-28 16:35:00,70.5,60.6,25.88,NNW,342,4.0,4.0,71,0.00,,,0.00,49,Wunderground v.1.15,2013-04-28 22:35:00,
2013-04-28 16:45:00,70.3,60.4,25.89,SE,136,3.0,4.0,71,0.00,,,0.00,46,Wunderground v.1.15,2013-04-28 22:45:00,
2013-04-28 16:55:00,70.2,60.4,25.89,NNW,344,4.0,6.0,71,0.00,,,0.00,44,Wunderground v.1.15,2013-04-28 22:55:00,
2013-04-28 17:00:00,69.8,60.4,25.89,SW,219,4.0,4.0,72,0.00,,,0.00,39,Wunderground v.1.15,2013-04-28 23:00:00,
2013-04-28 17:05:00,69.5,60.5,25.89,SE,136,5.0,6.0,73,0.00,,,0.00,39,Wunderground v.1.15,2013-04-28 23:05:00,
2013-04-28 17:10:00,69.5,60.5,25.89,East,87,4.0,4.0,73,0.00,,,0.00,30,Wunderground v.1.15,2013-04-28 23:10:00,
2013-04-28 17:15:00,69.3,60.3,25.89,West,265,4.0,4.0,73,0.00,,,0.00,30,Wunderground v.1.15,2013-04-28 23:15:00,
2013-04-28 17:25:00,69.2,60.2,25.90,NNE,17,3.0,8.0,73,0.00,,,0.00,23,Wunderground v.1.15,2013-04-28 23:25:00,
2013-04-28 17:30:00,69.2,59.8,25.90,North,360,2.0,3.0,72,0.00,,,0.00,14,Wunderground v.1.15,2013-04-28 23:30:00,
2013-04-28 17:35:00,69.0,59.2,25.90,NNE,17,3.0,3.0,71,0.00,,,0.00,11,Wunderground v.1.15,2013-04-28 23:35:00,
2013-04-28 17:40:00,68.7,59.3,25.90,ENE,74,4.0,5.0,72,0.00,,,0.00,7,Wunderground v.1.15,2013-04-28 23:40:00,
2013-04-28 17:45:00,68.8,59.4,25.91,East,98,3.0,5.0,72,0.00,,,0.00,0,Wunderground v.1.15,2013-04-28 23:45:00,
2013-04-28 17:55:00,68.8,59.4,25.91,NNE,16,3.0,4.0,72,0.00,,,0.00,0,Wunderground v.1.15,2013-04-28 23:55:00,
2013-04-28 18:05:00,68.5,59.5,25.91,NW,314,3.0,4.0,73,0.00,,,0.00,0,Wunderground v.1.15,2013-04-29 00:05:00,
2013-04-28 18:10:00,68.5,59.5,25.91,SE,137,2.0,2.0,73,0.00,,,0.00,0,Wunderground v.1.15,2013-04-29 00:10:00,
2013-04-28 18:15:00,68.5,59.5,25.91,NNE,19,2.0,2.0,73,0.00,,,0.00,0,Wunderground v.1.15,2013-04-29 00:15:00,
2013-04-28 18:25:00,68.5,59.5,25.91,East,101,3.0,6.0,73,0.00,,,0.00,0,Wunderground v.1.15,2013-04-29 00:25:00,
2013-04-28 18:30:00,68.5,59.5,25.91,East,88,3.0,3.0,73,0.00,,,0.00,0,Wunderground v.1.15,2013-04-29 00:30:00,
2013-04-28 18:35:00,68.5,59.1,25.91,ESE,109,2.0,5.0,72,0.00,,,0.00,0,Wunderground v.1.15,2013-04-29 00:35:00,
2013-04-28 18:45:00,68.5,59.5,25.92,North,5,2.0,3.0,73,0.00,,,0.00,0,Wunderground v.1.15,2013-04-29 00:45:00,
2013-04-28 18:50:00,68.5,59.5,25.92,NNW,336,1.0,2.0,73,0.00,,,0.00,0,Wunderground v.1.15,2013-04-29 00:50:00,
2013-04-28 18:55:00,68.2,59.6,25.92,ESE,113,2.0,2.0,74,0.00,,,0.00,0,Wunderground v.1.15,2013-04-29 00:55:00,
2013-04-28 19:00:00,68.3,59.3,25.92,ESE,108,2.0,2.0,73,0.00,,,0.00,0,Wunderground v.1.15,2013-04-29 01:00:00,
2013-04-28 19:10:00,68.2,58.8,25.92,WSW,243,2.0,2.0,72,0.00,,,0.00,0,Wunderground v.1.15,2013-04-29 01:10:00,
2013-04-28 19:15:00,68.3,58.9,25.92,East,80,2.0,2.0,72,0.00,,,0.00,0,Wunderground v.1.15,2013-04-29 01:15:00,
2013-04-28 19:25:00,68.5,58.7,25.92,East,90,3.0,4.0,71,0.00,,,0.00,0,Wunderground v.1.15,2013-04-29 01:25:00,
2013-04-28 19:30:00,68.7,59.3,25.92,ENE,65,3.0,3.0,72,0.00,,,0.00,0,Wunderground v.1.15,2013-04-29 01:30:00,
2013-04-28 19:35:00,68.8,59.0,25.92,ENE,63,2.0,3.0,71,0.00,,,0.00,0,Wunderground v.1.15,2013-04-29 01:35:00,
2013-04-28 19:40:00,69.0,59.2,25.92,East,98,1.0,1.0,71,0.00,,,0.00,0,Wunderground v.1.15,2013-04-29 01:40:00,
2013-04-28 19:45:00,69.2,59.4,25.93,NE,51,1.0,1.0,71,0.00,,,0.00,0,Wunderground v.1.15,2013-04-29 01:45:00,
2013-04-28 19:55:00,69.0,59.2,25.93,NE,51,0.0,1.0,71,0.00,,,0.00,0,Wunderground v.1.15,2013-04-29 01:55:00,
2013-04-28 20:00:00,68.7,59.3,25.93,WNW,300,1.0,2.0,72,0.00,,,0.00,0,Wunderground v.1.15,2013-04-29 02:00:00,
2013-04-28 20:10:00,68.2,59.2,25.93,North,5,1.0,1.0,73,0.00,,,0.00,0,Wunderground v.1.15,2013-04-29 02:10:00,
2013-04-28 20:15:00,68.0,59.4,25.93,NE,39,1.0,1.0,74,0.00,,,0.00,0,Wunderground v.1.15,2013-04-29 02:15:00,
2013-04-28 20:20:00,68.0,59.0,25.93,East,82,0.0,1.0,73,0.00,,,0.00,0,Wunderground v.1.15,2013-04-29 02:20:00,
2013-04-28 20:30:00,68.5,58.7,25.94,SSE,159,2.0,4.0,71,0.00,,,0.00,0,Wunderground v.1.15,2013-04-29 02:30:00,
2013-04-28 20:35:00,68.8,58.6,25.94,East,92,2.0,4.0,70,0.00,,,0.00,0,Wunderground v.1.15,2013-04-29 02:35:00,
2013-04-28 20:40:00,68.8,58.6,25.94,SSE,147,2.0,2.0,70,0.00,,,0.00,0,Wunderground v.1.15,2013-04-29 02:40:00,
2013-04-28 20:45:00,68.8,58.6,25.94,NNW,333,1.0,2.0,70,0.00,,,0.00,0,Wunderground v.1.15,2013-04-29 02:45:00,
2013-04-28 20:55:00,68.2,59.2,25.94,North,349,1.0,1.0,73,0.00,,,0.00,0,Wunderground v.1.15,2013-04-29 02:55:00,
2013-04-28 21:00:00,67.8,59.2,25.94,NNE,21,1.0,1.0,74,0.00,,,0.00,0,Wunderground v.1.15,2013-04-29 03:00:00,
2013-04-28 21:05:00,67.5,59.3,25.94,NNE,21,1.0,1.0,75,0.00,,,0.00,0,Wunderground v.1.15,2013-04-29 03:05:00,
2013-04-28 21:10:00,67.2,59.4,25.94,WNW,290,1.0,1.0,76,0.00,,,0.00,0,Wunderground v.1.15,2013-04-29 03:10:00,
2013-04-28 21:15:00,67.0,59.2,25.94,NE,53,1.0,1.0,76,0.00,,,0.00,0,Wunderground v.1.15,2013-04-29 03:15:00,
2013-04-28 21:25:00,66.8,59.4,25.95,NE,53,1.0,1.0,77,0.00,,,0.00,0,Wunderground v.1.15,2013-04-29 03:25:00,
2013-04-28 21:30:00,66.8,59.4,25.95,NE,53,1.0,1.0,77,0.00,,,0.00,0,Wunderground v.1.15,2013-04-29 03:30:00,
2013-04-28 21:35:00,66.7,58.9,25.95,NE,53,0.0,1.0,76,0.00,,,0.00,0,Wunderground v.1.15,2013-04-29 03:35:00,
2013-04-28 21:40:00,66.8,59.0,25.95,ENE,67,0.0,0.0,76,0.00,,,0.00,0,Wunderground v.1.15,2013-04-29 03:40:00,
2013-04-28 21:45:00,66.7,58.5,25.95,ENE,67,0.0,0.0,75,0.00,,,0.00,0,Wunderground v.1.15,2013-04-29 03:45:00,
2013-04-28 21:50:00,66.7,58.1,25.95,WNW,302,0.0,0.0,74,0.00,,,0.00,0,Wunderground v.1.15,2013-04-29 03:50:00,
2013-04-28 22:00:00,66.5,58.7,25.95,ENE,71,1.0,1.0,76,0.00,,,0.00,0,Wunderground v.1.15,2013-04-29 04:00:00,
2013-04-28 22:05:00,66.3,58.5,25.95,ENE,71,1.0,1.0,76,0.00,,,0.00,0,Wunderground v.1.15,2013-04-29 04:05:00,
2013-04-28 22:10:00,66.3,58.5,25.95,ENE,78,0.0,0.0,76,0.00,,,0.00,0,Wunderground v.1.15,2013-04-29 04:10:00,
2013-04-28 22:15:00,66.2,58.4,25.95,East,82,1.0,1.0,76,0.00,,,0.00,0,Wunderground v.1.15,2013-04-29 04:15:00,
2013-04-28 22:25:00,66.0,58.2,25.95,East,87,1.0,1.0,76,0.00,,,0.00,0,Wunderground v.1.15,2013-04-29 04:25:00,
2013-04-28 22:30:00,66.0,58.6,25.95,East,87,1.0,1.0,77,0.00,,,0.00,0,Wunderground v.1.15,2013-04-29 04:30:00,
2013-04-28 22:40:00,65.9,58.1,25.95,NNW,342,0.0,0.0,76,0.00,,,0.00,0,Wunderground v.1.15,2013-04-29 04:40:00,
2013-04-28 22:45:00,65.9,57.7,25.95,NE,40,0.0,0.0,75,0.00,,,0.00,0,Wunderground v.1.15,2013-04-29 04:45:00,
2013-04-28 22:50:00,65.9,58.1,25.94,NE,39,0.0,1.0,76,0.00,,,0.00,0,Wunderground v.1.15,2013-04-29 04:50:00,
2013-04-28 22:55:00,65.9,57.7,25.94,East,98,1.0,1.0,75,0.00,,,0.00,0,Wunderground v.1.15,2013-04-29 04:55:00,
2013-04-28 23:05:00,65.7,57.9,25.94,ESE,103,1.0,1.0,76,0.00,,,0.00,0,Wunderground v.1.15,2013-04-29 05:05:00,
2013-04-28 23:10:00,65.5,57.7,25.94,East,89,2.0,3.0,76,0.00,,,0.00,0,Wunderground v.1.15,2013-04-29 05:10:00,
2013-04-28 23:15:00,65.5,58.1,25.94,NNE,30,2.0,3.0,77,0.00,,,0.00,0,Wunderground v.1.15,2013-04-29 05:15:00,
2013-04-28 23:20:00,65.5,58.1,25.94,SSE,150,1.0,2.0,77,0.00,,,0.00,0,Wunderground v.1.15,2013-04-29 05:20:00,
2013-04-28 23:30:00,65.5,57.7,25.93,ESE,107,2.0,2.0,76,0.00,,,0.00,0,Wunderground v.1.15,2013-04-29 05:30:00,
2013-04-28 23:35:00,65.7,57.9,25.93,ESE,119,1.0,2.0,76,0.00,,,0.00,0,Wunderground v.1.15,2013-04-29 05:35:00,
2013-04-28 23:40:00,65.5,57.4,25.93,East,82,1.0,1.0,75,0.00,,,0.00,0,Wunderground v.1.15,2013-04-29 05:40:00,
2013-04-28 23:45:00,65.5,57.4,25.93,East,82,1.0,1.0,75,0.00,,,0.00,0,Wunderground v.1.15,2013-04-29 05:45:00,
2013-04-28 23:55:00,65.4,57.6,25.93,ESE,123,1.0,1.0,76,0.00,,,0.00,0,Wunderground v.1.15,2013-04-29 05:55:00,